Location: Brachbach
(49.1847°N, 9.7240°E)
Time: 05:23:57
(UTC+00:00)

PCSat - Pass Details

Date: 13 March 2026
Orbit: 780 x 790 km, 67.1° (Epoch: 13 April)

Event Time Altitude Azimuth Distance (km) Brightness Sun altitude
Exits shadow 03:15:25 - 322° (NW) 2,952 12.4 -23.7°
Reaches altitude 10° 03:18:21 10° 346° (NNW) 2,364 12.1 -23.3°
Maximum altitude 03:20:24 12° 8° (N) 2,224 12.3 -23.0°
Drops below altitude 10° 03:22:27 10° 31° (NNE) 2,364 12.7 -22.7°
Sets 03:26:38 0° 62° (ENE) 3,292 14.3 -22.0°
